Location: Highland Meadows Observing Site
(48.4428°N, 114.5461°W)
Time: 13:36:51
(UTC-07:00)

Amateur Radio Satellites - All Passes

Search period start: 09 February 2016 13:06
Search period end: 10 February 2016 13:06
Location: Highland Meadows Observing Site, 48.4428°N, 114.5461°W

Satellite Date Start Highest point End Downlink Frequencies (MHz)
Time Altitude Azimuth
AIST 1 09 Feb 13:06:54 13:08:31 12° 299° (WNW) 13:10:09
SPROUT 09 Feb 13:07:49 13:12:07 85° 104° (ESE) 13:16:23 437.525
DX 1 09 Feb 13:09:07 13:13:01 32° 294° (WNW) 13:16:52 434.975-435.025
AO-85 09 Feb 13:16:51 13:21:35 29° 327° (NNW) 13:26:20 145.980
TISAT 1 09 Feb 13:18:55 13:22:56 42° 99° (E) 13:26:54 437.305
SO-50 09 Feb 13:23:06 13:27:53 52° 45° (NE) 13:32:30 436.795
YUBILEINY 09 Feb 13:27:00 13:34:40 31° 62° (ENE) 13:42:14 435.215
50 SAT 09 Feb 13:35:07 13:36:55 13° 300° (WNW) 13:38:44 437.505
Oscar 19 09 Feb 13:35:28 13:40:32 53° 260° (W) 13:45:38 437.125/150
ITUPSAT 1 09 Feb 13:41:28 13:44:27 16° 89° (E) 13:47:26 437.325
Cosmos 2491 09 Feb 13:42:26 13:46:15 14° 70° (ENE) 13:50:04 435.465 / 435.565
BEESAT 09 Feb 13:49:54 13:53:23 20° 91° (E) 13:56:50 436.000
Gurwin Techsat 1B 09 Feb 14:02:19 14:07:38 77° 256° (WSW) 14:13:00 435.225
VELOX 1 09 Feb 14:03:30 14:05:28 13° 304° (NW) 14:07:27 145.980
CUSAT 1 09 Feb 14:07:22 14:12:59 35° 273° (W) 14:17:22 437.405
JAS-2 09 Feb 14:07:59 14:15:23 52° 261° (W) 14:22:10 435.910
RS-15 09 Feb 14:13:13 14:24:23 60° 321° (NW) 14:36:13 29.354- 29.394
AO-7 09 Feb 14:17:41 14:25:32 47° 58° (ENE) 14:33:23 29.400- 29.500
HORYU 2 09 Feb 14:31:26 14:33:13 12° 56° (NE) 14:35:01 437.375
DANDE 09 Feb 14:36:04 14:42:56 42° 272° (W) 14:48:20 436.750
SWISSCUBE 09 Feb 14:41:21 14:46:09 62° 102° (ESE) 14:50:54 437.505
PCSat 09 Feb 14:42:20 14:45:26 15° 337° (NNW) 14:48:32 145.827
ITAMSAT 1 09 Feb 14:43:08 14:48:16 61° 258° (WSW) 14:53:28 435.822/435.867
SPROUT 09 Feb 14:45:33 14:47:29 13° 302° (WNW) 14:49:25 437.525
M-CUBED/EXP-1 PRIME 09 Feb 14:54:56 14:58:11 33° 64° (ENE) 15:01:17 437.505
TISAT 1 09 Feb 14:55:09 14:58:22 22° 297° (WNW) 15:01:35 437.305
AO-85 09 Feb 15:00:51 15:03:53 15° 350° (N) 15:06:53 145.980
SO-50 09 Feb 15:04:03 15:08:08 28° 245° (WSW) 15:12:06 436.795
AUBIESAT-1 09 Feb 15:05:03 15:08:20 36° 64° (ENE) 15:11:30 437.475
Cosmos 2504 09 Feb 15:17:51 15:25:33 33° 63° (ENE) 15:32:49 435.465 / 435.565
ITUPSAT 1 09 Feb 15:18:00 15:22:49 71° 288° (WNW) 15:27:36 437.325
STARS 09 Feb 15:21:45 15:23:41 13° 88° (E) 15:25:36 437.465
YUBILEINY 09 Feb 15:23:30 15:32:20 73° 266° (W) 15:41:05 435.215
BEESAT 09 Feb 15:26:49 15:31:33 58° 289° (WNW) 15:36:15 436.000
MOZHAYETS 4 09 Feb 15:28:18 15:30:05 12° 86° (E) 15:31:52
Cosmos 2491 09 Feb 15:32:41 15:41:12 63° 92° (E) 15:49:46 435.465 / 435.565
KKS-1 09 Feb 15:36:11 15:40:09 30° 96° (E) 15:44:03 437.445
Gurwin Techsat 1B 09 Feb 15:46:38 15:48:29 12° 275° (W) 15:50:20 435.225
ISS 09 Feb 15:52:57 15:54:12 12° 135° (SE) 15:55:27 145.825
HORYU 2 09 Feb 16:04:40 16:09:06 84° 74° (ENE) 16:13:33 437.375
O/OREOS (USA 219) 09 Feb 16:09:15 16:10:59 12° 39° (NE) 16:12:43 437.305
AO-7 09 Feb 16:10:12 16:18:16 51° 259° (W) 16:26:24 29.400- 29.500
SWISSCUBE 09 Feb 16:20:02 16:23:32 21° 300° (WNW) 16:27:02 437.505
CUTE-I 09 Feb 16:20:28 16:23:42 16° 54° (NE) 16:26:55 437.470
RS-15 09 Feb 16:29:19 16:39:50 37° 354° (N) 16:50:48 29.354- 29.394
PCSat 09 Feb 16:30:09 16:31:20 11° 4° (N) 16:32:31 145.827
M-CUBED/EXP-1 PRIME 09 Feb 16:30:17 16:32:56 19° 259° (W) 16:35:30 437.505
Cubesat XI-IV 09 Feb 16:33:20 16:37:08 20° 57° (ENE) 16:40:59 437.490
AUBIESAT-1 09 Feb 16:40:32 16:43:03 18° 260° (W) 16:45:30 437.475
AO-85 09 Feb 16:43:15 16:46:36 16° 15° (NNE) 16:49:51 145.980
STARS 09 Feb 16:56:14 17:00:37 77° 286° (WNW) 17:04:59 437.465
ITUPSAT 1 09 Feb 16:58:04 16:59:49 12° 307° (NW) 17:01:33 437.325
MOZHAYETS 4 09 Feb 17:03:15 17:07:56 88° 278° (W) 17:12:34
Cosmos 2504 09 Feb 17:11:03 17:19:42 68° 267° (W) 17:27:47 435.465 / 435.565
BRITE-PL 09 Feb 17:11:49 17:16:14 24° 61° (ENE) 17:20:31 437.365/2234.400
KKS-1 09 Feb 17:12:46 17:16:43 32° 294° (WNW) 17:20:39 437.445
YUBILEINY 09 Feb 17:22:26 17:27:29 17° 288° (WNW) 17:32:33 435.215
ISS 09 Feb 17:26:53 17:30:06 60° 152° (SSE) 17:33:19 145.825
Cosmos 2491 09 Feb 17:30:50 17:38:37 35° 295° (WNW) 17:46:28 435.465 / 435.565
CUBESAT XI-V 09 Feb 17:43:21 17:47:29 29° 94° (E) 17:51:34 437.345
HORYU 2 09 Feb 17:44:41 17:46:17 12° 272° (W) 17:47:53 437.375
O/OREOS (USA 219) 09 Feb 17:46:51 17:51:24 60° 60° (ENE) 17:55:56 437.305
LilacSat-2 09 Feb 17:46:53 17:50:37 54° 73° (ENE) 17:54:21 437.200
BEESAT 3 09 Feb 17:54:44 17:58:35 49° 122° (ESE) 18:02:28 437.485
CUTE-I 09 Feb 17:57:40 18:03:00 87° 78° (ENE) 18:08:24 437.470
DOVE 4 09 Feb 18:02:55 18:06:16 18° 61° (ENE) 18:09:31 437.250
Cubesat XI-IV 09 Feb 18:11:21 18:16:40 74° 256° (WSW) 18:22:03 437.490
PCSat 09 Feb 18:13:05 18:17:02 20° 30° (NNE) 18:20:56 145.827
GOMX 1 09 Feb 18:18:22 18:23:25 42° 69° (ENE) 18:28:13 467.674
BEESAT 2 09 Feb 18:18:23 18:22:19 56° 123° (ESE) 18:26:17 435.950
AO-85 09 Feb 18:23:39 18:28:38 38° 39° (NE) 18:33:16 145.980
CANX-2 09 Feb 18:29:40 18:31:39 13° 58° (ENE) 18:33:38 2200.000
STARS 09 Feb 18:34:58 18:36:14 11° 305° (NW) 18:37:31 437.465
AIST 2 09 Feb 18:36:52 18:38:10 11° 109° (ESE) 18:39:27 435.215
MOZHAYETS 4 09 Feb 18:42:08 18:44:25 14° 303° (WNW) 18:46:41
HO-68 09 Feb 18:43:51 18:50:15 37° 58° (ENE) 18:56:41 435.675
RS-15 09 Feb 18:44:36 18:56:00 46° 27° (NNE) 19:07:42 29.354- 29.394
BRITE-PL 09 Feb 18:48:36 18:54:16 66° 259° (W) 18:59:47 437.365/2234.400
GONETS M04 09 Feb 18:52:06 18:59:13 26° 59° (ENE) 19:06:18
CINEMA 3 09 Feb 18:59:04 19:02:24 20° 63° (ENE) 19:05:38 145.822/145.860
ISS 09 Feb 19:03:27 19:06:38 49° 352° (N) 19:09:49 145.825
Cosmos 2504 09 Feb 19:06:47 19:11:18 16° 289° (WNW) 19:15:42 435.465 / 435.565
CUBEBUG 2 09 Feb 19:11:03 19:11:09 10° 56° (NE) 19:11:16 437.445
COMPASS 1 09 Feb 19:12:20 19:15:07 18° 61° (ENE) 19:17:55 437.405
CUTE 1.7 + AOD 2 09 Feb 19:18:12 19:21:57 32° 67° (ENE) 19:25:44 437.475
CUBESAT XI-V 09 Feb 19:20:35 19:24:56 37° 292° (WNW) 19:29:14 437.345
LilacSat-2 09 Feb 19:23:17 19:25:17 14° 270° (W) 19:27:19 437.200
SEEDS 09 Feb 19:25:05 19:28:43 29° 66° (ENE) 19:32:23 437.485
PRISM 09 Feb 19:26:35 19:28:09 12° 88° (E) 19:29:42 437.425
O/OREOS (USA 219) 09 Feb 19:27:14 19:30:21 18° 259° (W) 19:33:28 437.305
BEESAT 3 09 Feb 19:33:11 19:36:34 26° 322° (NW) 19:39:58 437.485
DOVE 4 09 Feb 19:38:27 19:43:32 72° 258° (WSW) 19:48:20 437.250
AAUSAT CUBESAT 2 09 Feb 19:40:22 19:43:50 26° 66° (ENE) 19:47:20 437.432
CUTE-I 09 Feb 19:40:51 19:43:47 15° 273° (W) 19:46:45 437.470
STRAND 1 09 Feb 19:55:13 20:00:23 69° 103° (ESE) 20:05:31 437.568
PCSat 09 Feb 19:55:58 20:01:25 70° 53° (NE) 20:06:50 145.827
Cubesat XI-IV 09 Feb 19:56:13 19:57:42 11° 275° (W) 19:59:12 437.490
GOMX 1 09 Feb 19:56:49 20:01:34 31° 266° (W) 20:06:09 467.674
BEESAT 2 09 Feb 19:57:10 20:00:31 24° 323° (NW) 20:03:51 435.950
CANX-2 09 Feb 20:02:42 20:06:54 82° 255° (WSW) 20:11:11 2200.000
ZACube-1 09 Feb 20:03:50 20:06:37 17° 62° (ENE) 20:09:23 437.345
AO-85 09 Feb 20:04:19 20:09:17 45° 241° (WSW) 20:13:51 145.980
AIST 2 09 Feb 20:11:48 20:15:59 85° 127° (SE) 20:20:11 435.215
FUNcube-1 09 Feb 20:12:40 20:15:43 20° 63° (ENE) 20:18:45 145.935
Cosmos 2499 09 Feb 20:19:38 20:27:24 36° 65° (ENE) 20:34:37 435.465 / 435.565
HO-68 09 Feb 20:30:41 20:37:42 56° 259° (WSW) 20:44:48 435.675
BRITE-PL 09 Feb 20:32:18 20:33:40 11° 277° (W) 20:35:02 437.365/2234.400
CINEMA 3 09 Feb 20:34:46 20:39:16 53° 260° (W) 20:43:36 145.822/145.860
ISS 09 Feb 20:40:11 20:43:24 54° 12° (NNE) 20:46:36 145.825
CUBEBUG 2 09 Feb 20:42:46 20:47:04 75° 76° (ENE) 20:51:18 437.445
UWE-3 09 Feb 20:43:58 20:48:08 56° 72° (ENE) 20:52:14 435.000/436.395/437.385
Oscar 11 09 Feb 20:44:30 20:48:41 53° 71° (ENE) 20:52:53 145.826/435.025
COMPASS 1 09 Feb 20:46:15 20:50:19 55° 260° (W) 20:54:27 437.405
GONETS M04 09 Feb 20:48:23 20:57:14 85° 264° (W) 21:06:04
CUTE 1.7 + AOD 2 09 Feb 20:54:12 20:57:49 28° 265° (W) 21:01:30 437.475
DELFI C3 09 Feb 20:55:15 20:58:55 37° 69° (ENE) 21:02:38 145.870
RS-15 09 Feb 20:57:42 21:09:50 84° 236° (SW) 21:22:12 29.354- 29.394
PRISM 09 Feb 20:59:50 21:04:03 78° 285° (WNW) 21:08:12 437.425
SEEDS 09 Feb 21:00:42 21:04:23 30° 265° (W) 21:08:09 437.485
AAUSAT CUBESAT 2 09 Feb 21:15:29 21:19:14 33° 264° (W) 21:23:03 437.432
AIST 1 09 Feb 21:29:13 21:33:11 32° 72° (ENE) 21:37:05
STRAND 1 09 Feb 21:35:20 21:39:04 21° 302° (WNW) 21:42:48 437.568
ZACube-1 09 Feb 21:38:26 21:42:33 55° 259° (W) 21:46:40 437.345
PCSat 09 Feb 21:40:14 21:44:19 22° 252° (WSW) 21:48:23 145.827
FUNcube-1 09 Feb 21:47:40 21:51:42 46° 261° (W) 21:55:44 145.935
UNISAT 6 09 Feb 21:51:13 21:52:44 12° 88° (E) 21:54:16 437.425
VELOX 1 09 Feb 21:51:23 21:54:22 18° 60° (ENE) 21:57:22 145.980
AIST 2 09 Feb 21:51:56 21:55:02 20° 328° (NNW) 21:58:08 435.215
HUMSAT D 09 Feb 21:57:54 22:01:59 76° 75° (ENE) 22:06:05 437.325/437.525
AISAT 09 Feb 22:07:14 22:10:53 25° 63° (ENE) 22:14:32 437.250
Cosmos 2499 09 Feb 22:12:43 22:21:03 59° 269° (W) 22:28:44 435.465 / 435.565
ISS 09 Feb 22:16:43 22:19:51 45° 211° (SSW) 22:22:58 145.825
UKube-1 09 Feb 22:20:21 22:24:06 29° 65° (ENE) 22:27:50 .
Oscar 11 09 Feb 22:22:13 22:25:09 18° 269° (W) 22:28:05 145.826/435.025
UWE-3 09 Feb 22:22:21 22:24:58 16° 270° (W) 22:27:34 435.000/436.395/437.385
CUBEBUG 2 09 Feb 22:22:26 22:24:13 12° 272° (W) 22:26:00 437.445
HO-68 09 Feb 22:26:11 22:27:03 10° 279° (W) 22:27:55 435.675
CUBEBUG 1 09 Feb 22:26:52 22:30:43 30° 66° (ENE) 22:34:36 437.445
ESTCUBE 1 09 Feb 22:28:06 22:32:19 40° 68° (ENE) 22:36:35 437.505/2401.250
DELFI C3 09 Feb 22:30:51 22:33:58 22° 267° (W) 22:37:07 145.870
SPROUT 09 Feb 22:31:34 22:33:47 14° 58° (ENE) 22:35:59 437.525
DX 1 09 Feb 22:31:47 22:35:55 42° 68° (ENE) 22:40:04 434.975-435.025
ANTELSAT 09 Feb 22:34:25 22:38:17 31° 96° (E) 22:42:11 437.575/2403.000
PRISM 09 Feb 22:37:45 22:38:38 11° 305° (NW) 22:39:31 437.425
TIGRISAT 09 Feb 22:41:15 22:45:13 34° 97° (E) 22:49:13 435.000
50 SAT 09 Feb 22:43:15 22:46:53 56° 73° (ENE) 22:50:34 437.505
GONETS M04 09 Feb 22:46:47 22:52:44 21° 285° (WNW) 22:58:43
QB50P1 09 Feb 22:48:33 22:49:46 11° 87° (E) 22:50:59 145.935-145.965
AIST 1 09 Feb 23:07:00 23:10:41 27° 271° (W) 23:14:19
RS-15 09 Feb 23:11:20 23:20:41 27° 259° (W) 23:30:09 29.354- 29.394
UNISAT 6 09 Feb 23:25:42 23:30:03 83° 285° (WNW) 23:34:26 437.425
VELOX 1 09 Feb 23:25:58 23:30:25 64° 258° (WSW) 23:34:52 145.980
HUMSAT D 09 Feb 23:36:48 23:38:11 11° 272° (W) 23:39:33 437.325/437.525
POLYITAN 1 09 Feb 23:39:01 23:42:56 36° 98° (E) 23:46:49 437.675
QB50P2 09 Feb 23:39:38 23:43:36 38° 98° (E) 23:47:32 145.880/145.840
BUGSAT 1 09 Feb 23:42:26 23:45:25 19° 92° (E) 23:48:22 437.445
AISAT 09 Feb 23:42:56 23:47:11 42° 262° (W) 23:51:27 437.250
UKube-1 09 Feb 23:56:09 00:00:05 33° 263° (W) 00:04:03 .
CUBEBUG 1 10 Feb 00:02:57 00:06:57 33° 263° (W) 00:11:01 437.445
SPROUT 10 Feb 00:04:53 00:09:11 80° 255° (WSW) 00:13:31 437.525
ESTCUBE 1 10 Feb 00:05:30 00:09:16 26° 266° (W) 00:13:05 437.505/2401.250
DX 1 10 Feb 00:08:47 00:12:17 23° 266° (W) 00:15:49 434.975-435.025
Cosmos 2499 10 Feb 00:09:03 00:12:08 12° 292° (WNW) 00:15:09 435.465 / 435.565
POPSAT HIP 1 10 Feb 00:09:15 00:13:29 73° 102° (ESE) 00:17:40 437.405
ANTELSAT 10 Feb 00:11:10 00:15:00 31° 293° (WNW) 00:18:51 437.575/2403.000
NANOSAT C BR1 10 Feb 00:13:58 00:18:11 81° 102° (ESE) 00:22:23 145.865
TISAT 1 10 Feb 00:14:00 00:18:06 52° 71° (ENE) 00:22:13 437.305
DUCHIFAT 1 10 Feb 00:15:23 00:19:36 80° 103° (ESE) 00:23:47 145.980
SWISSCUBE 10 Feb 00:15:58 00:18:57 17° 57° (ENE) 00:21:57 437.505
TIGRISAT 10 Feb 00:18:10 00:21:50 28° 294° (WNW) 00:25:34 435.000
50 SAT 10 Feb 00:19:31 00:21:18 13° 270° (W) 00:23:04 437.505
QB50P1 10 Feb 00:21:56 00:26:09 82° 287° (WNW) 00:30:21 145.935-145.965
BEESAT 3 10 Feb 00:31:48 00:34:44 19° 33° (NNE) 00:37:38 437.485
ITUPSAT 1 10 Feb 00:51:26 00:55:31 29° 64° (ENE) 00:59:38 437.325
BEESAT 2 10 Feb 00:56:00 00:59:06 21° 34° (NE) 01:02:11 435.950
BEESAT 10 Feb 00:59:37 01:03:54 34° 65° (ENE) 01:08:12 436.000
UNISAT 6 10 Feb 01:04:38 01:06:05 12° 304° (WNW) 01:07:33 437.425
AIST 2 10 Feb 01:14:54 01:15:38 10° 16° (NNE) 01:16:22 435.215
POLYITAN 1 10 Feb 01:15:09 01:18:37 25° 295° (WNW) 01:22:03 437.675
JAS-2 10 Feb 01:15:20 01:19:08 18° 86° (E) 01:22:44 435.910
QB50P2 10 Feb 01:15:50 01:19:15 24° 296° (WNW) 01:22:39 145.880/145.840
BUGSAT 1 10 Feb 01:17:11 01:21:02 42° 290° (WNW) 01:24:49 437.445
CUSAT 1 10 Feb 01:29:30 01:36:50 41° 89° (E) 01:44:05 437.405
Cosmos 2491 10 Feb 01:38:14 01:46:18 39° 67° (ENE) 01:54:21 435.465 / 435.565
Oscar 19 10 Feb 01:43:08 01:47:59 40° 97° (E) 01:52:48 437.125/150
POPSAT HIP 1 10 Feb 01:46:29 01:48:45 14° 301° (WNW) 01:51:00 437.405
TISAT 1 10 Feb 01:51:15 01:54:06 17° 269° (W) 01:56:57 437.305
NANOSAT C BR1 10 Feb 01:51:21 01:53:22 13° 302° (WNW) 01:55:21 145.865
SWISSCUBE 10 Feb 01:51:24 01:56:11 78° 256° (WSW) 02:01:00 437.505
DUCHIFAT 1 10 Feb 01:52:44 01:54:45 13° 302° (WNW) 01:56:45 145.980
QB50P1 10 Feb 02:00:04 02:01:14 11° 304° (NW) 02:02:24 145.935-145.965
DANDE 10 Feb 02:03:12 02:10:32 43° 88° (E) 02:18:22 436.750
BEESAT 3 10 Feb 02:09:00 02:12:59 81° 233° (SW) 02:16:55 437.485
Gurwin Techsat 1B 10 Feb 02:14:56 02:19:42 32° 95° (E) 02:24:25 435.225
STARS 10 Feb 02:21:33 02:24:43 20° 61° (ENE) 02:27:52 437.465
PHONESAT 2.4 10 Feb 02:23:49 02:25:55 16° 166° (SSE) 02:28:00 2401.200-2431.200
ITUPSAT 1 10 Feb 02:28:45 02:33:14 40° 262° (W) 02:37:46 437.325
MOZHAYETS 4 10 Feb 02:33:18 02:36:28 19° 60° (ENE) 02:39:39
BEESAT 2 10 Feb 02:33:26 02:37:26 71° 234° (SW) 02:41:23 435.950
YUBILEINY 10 Feb 02:33:59 02:41:08 29° 80° (E) 02:48:21 435.215
BEESAT 10 Feb 02:37:25 02:41:42 33° 264° (W) 02:46:02 436.000
KKS-1 10 Feb 02:37:36 02:41:50 45° 69° (ENE) 02:46:06 437.445
AIST 2 10 Feb 02:51:48 02:55:28 29° 39° (NE) 02:59:07 435.215
ITAMSAT 1 10 Feb 02:52:12 02:57:01 36° 97° (E) 03:01:49 435.822/435.867
JAS-2 10 Feb 02:59:13 03:05:03 72° 289° (WNW) 03:10:20 435.910
CUSAT 1 10 Feb 03:11:01 03:18:58 57° 288° (WNW) 03:26:43 437.405
Oscar 19 10 Feb 03:22:42 03:27:13 32° 296° (WNW) 03:31:42 437.125/150
SWISSCUBE 10 Feb 03:34:14 03:34:48 10° 275° (W) 03:35:23 437.505
Cosmos 2491 10 Feb 03:35:03 03:43:32 57° 269° (W) 03:52:01 435.465 / 435.565
DANDE 10 Feb 03:45:32 03:53:22 55° 289° (WNW) 04:01:42 436.750
HORYU 2 10 Feb 03:53:47 03:55:35 12° 88° (E) 03:57:24 437.375
Gurwin Techsat 1B 10 Feb 03:54:45 03:59:45 42° 294° (WNW) 04:04:43 435.225
STARS 10 Feb 03:56:24 04:00:44 54° 259° (W) 04:05:04 437.465
PHONESAT 2.4 10 Feb 04:00:03 04:02:32 20° 183° (S) 04:05:03 2401.200-2431.200
Cosmos 2504 10 Feb 04:01:54 04:08:19 24° 77° (ENE) 04:14:50 435.465 / 435.565
M-CUBED/EXP-1 PRIME 10 Feb 04:06:14 04:07:37 12° 98° (E) 04:09:02 437.505
AO-7 10 Feb 04:07:05 04:15:04 46° 100° (E) 04:22:57 29.400- 29.500
MOZHAYETS 4 10 Feb 04:08:41 04:13:12 62° 259° (W) 04:17:47
KKS-1 10 Feb 04:15:08 04:18:38 22° 267° (W) 04:22:08 437.445
AUBIESAT-1 10 Feb 04:15:36 04:17:18 13° 98° (E) 04:19:02 437.475
YUBILEINY 10 Feb 04:28:23 04:37:09 73° 282° (WNW) 04:46:03 435.215
AIST 2 10 Feb 04:30:10 04:34:07 44° 239° (WSW) 04:38:01 435.215
ITAMSAT 1 10 Feb 04:31:43 04:36:30 37° 295° (WNW) 04:41:16 435.822/435.867
JAS-2 10 Feb 04:46:07 04:48:59 14° 311° (NW) 04:51:45 435.910
CUBESAT XI-V 10 Feb 04:49:59 04:54:26 43° 69° (ENE) 04:58:54 437.345
CUSAT 1 10 Feb 04:58:15 05:02:57 16° 309° (NW) 05:07:31 437.405
SO-50 10 Feb 05:20:42 05:25:19 41° 119° (ESE) 05:29:58 436.795
HORYU 2 10 Feb 05:28:17 05:32:46 82° 284° (WNW) 05:37:13 437.375
DANDE 10 Feb 05:33:25 05:38:22 17° 312° (NW) 05:43:23 436.750
Cosmos 2491 10 Feb 05:35:27 05:38:19 12° 292° (WNW) 05:41:10 435.465 / 435.565
STRAND 1 10 Feb 05:37:14 05:41:13 23° 60° (ENE) 05:45:14 437.568
PHONESAT 2.4 10 Feb 05:37:40 05:39:07 12° 200° (SSW) 05:40:35 2401.200-2431.200
M-CUBED/EXP-1 PRIME 10 Feb 05:39:18 05:42:34 52° 293° (WNW) 05:45:59 437.505
AUBIESAT-1 10 Feb 05:48:51 05:52:09 49° 294° (WNW) 05:55:36 437.475
Cosmos 2504 10 Feb 05:51:51 06:00:32 89° 274° (W) 06:09:32 435.465 / 435.565
AO-7 10 Feb 06:00:00 06:07:56 50° 301° (WNW) 06:15:48 29.400- 29.500
CUTE-I 10 Feb 06:11:21 06:15:50 26° 93° (E) 06:20:18 437.470
PRISM 10 Feb 06:19:27 06:21:59 16° 59° (ENE) 06:24:33 437.425
Cubesat XI-IV 10 Feb 06:24:56 06:29:49 34° 96° (E) 06:34:40 437.490
CUBESAT XI-V 10 Feb 06:28:07 06:32:00 25° 267° (W) 06:35:55 437.345
YUBILEINY 10 Feb 06:29:51 06:35:49 20° 307° (NW) 06:41:51 435.215
BRITE-PL 10 Feb 06:50:43 06:55:01 31° 93° (E) 06:58:59 437.365/2234.400
LilacSat-2 10 Feb 06:50:53 06:54:35 49° 99° (E) 06:58:15 437.200
SO-50 10 Feb 07:01:14 07:05:52 39° 319° (NW) 07:10:33 436.795
HORYU 2 10 Feb 07:06:53 07:08:37 12° 305° (NW) 07:10:21 437.375
STRAND 1 10 Feb 07:14:59 07:20:02 58° 259° (W) 07:25:08 437.568
DOVE 4 10 Feb 07:34:36 07:37:53 21° 92° (E) 07:41:05 437.250
CANX-2 10 Feb 07:45:25 07:47:40 14° 88° (E) 07:49:57 2200.000
Cosmos 2504 10 Feb 07:48:21 07:55:15 25° 302° (WNW) 08:02:20 435.465 / 435.565
CUTE-I 10 Feb 07:50:57 07:56:10 51° 292° (WNW) 08:01:21 437.470
PRISM 10 Feb 07:52:43 07:56:51 65° 257° (WSW) 08:01:03 437.425
AO-7 10 Feb 07:54:16 07:58:49 16° 324° (NW) 08:03:22 29.400- 29.500
GOMX 1 10 Feb 07:54:36 07:59:06 65° 101° (E) 08:03:20 467.674
HO-68 10 Feb 07:54:38 08:00:22 25° 91° (E) 08:06:04 435.675
GONETS M04 10 Feb 08:00:05 08:06:31 24° 77° (ENE) 08:12:57
O/OREOS (USA 219) 10 Feb 08:03:13 08:07:11 32° 106° (ESE) 08:11:13 437.305
Cubesat XI-IV 10 Feb 08:04:57 08:09:58 40° 294° (WNW) 08:14:58 437.490
CINEMA 3 10 Feb 08:25:56 08:29:24 25° 94° (E) 08:32:52 145.822/145.860
COMPASS 1 10 Feb 08:26:09 08:29:09 18° 91° (E) 08:32:07 437.405
LilacSat-2 10 Feb 08:26:10 08:28:34 16° 297° (WNW) 08:30:58 437.200
BRITE-PL 10 Feb 08:29:09 08:33:33 34° 294° (WNW) 08:37:37 437.365/2234.400
CUBEBUG 2 10 Feb 08:31:53 08:33:10 11° 87° (E) 08:34:27 437.445
CUTE 1.7 + AOD 2 10 Feb 08:34:42 08:38:43 37° 97° (E) 08:42:43 437.475
SEEDS 10 Feb 08:40:26 08:44:18 33° 96° (E) 08:48:11 437.485
SO-50 10 Feb 08:44:49 08:47:43 15° 342° (NNW) 08:50:35 436.795
UNISAT 6 10 Feb 08:53:20 08:56:10 17° 61° (ENE) 08:58:59 437.425
AAUSAT CUBESAT 2 10 Feb 08:53:56 08:57:37 29° 95° (E) 09:01:17 437.432
Cosmos 2499 10 Feb 09:01:11 09:08:04 27° 79° (ENE) 09:14:59 435.465 / 435.565
DOVE 4 10 Feb 09:11:48 09:15:50 41° 291° (WNW) 09:19:44 437.250
CANX-2 10 Feb 09:19:44 09:24:01 68° 286° (WNW) 09:28:17 2200.000
ZACube-1 10 Feb 09:23:21 09:26:32 20° 92° (E) 09:29:44 437.345
FUNcube-1 10 Feb 09:32:01 09:35:26 24° 94° (E) 09:38:53 145.935
POPSAT HIP 1 10 Feb 09:32:39 09:34:13 12° 57° (ENE) 09:35:48 437.405
GOMX 1 10 Feb 09:33:50 09:36:41 17° 302° (WNW) 09:39:26 467.674
CUTE-I 10 Feb 09:34:42 09:35:02 10° 312° (NW) 09:35:24 437.470
NANOSAT C BR1 10 Feb 09:36:44 09:38:36 13° 58° (ENE) 09:40:27 145.865
ANTELSAT 10 Feb 09:36:51 09:40:55 42° 69° (ENE) 09:44:58 437.575/2403.000
DUCHIFAT 1 10 Feb 09:38:01 09:39:49 13° 58° (ENE) 09:41:36 145.980
HO-68 10 Feb 09:41:34 09:48:48 76° 291° (WNW) 09:55:58 435.675
O/OREOS (USA 219) 10 Feb 09:42:29 09:46:34 34° 306° (NW) 09:50:43 437.305
TIGRISAT 10 Feb 09:43:30 09:47:37 47° 70° (ENE) 09:51:44 435.000
QB50P1 10 Feb 09:44:12 09:46:40 15° 60° (ENE) 09:49:10 145.935-145.965
GONETS M04 10 Feb 09:53:32 10:02:14 85° 279° (W) 10:11:02
COMPASS 1 10 Feb 10:00:55 10:05:00 49° 289° (WNW) 10:09:04 437.405
CINEMA 3 10 Feb 10:02:54 10:06:40 34° 292° (WNW) 10:10:25 145.822/145.860
AIST 1 10 Feb 10:03:41 10:06:27 16° 84° (E) 10:09:13
Oscar 11 10 Feb 10:03:47 10:08:08 65° 102° (ESE) 10:12:27 145.826/435.025
DELFI C3 10 Feb 10:04:10 10:07:57 36° 97° (E) 10:11:43 145.870
UWE-3 10 Feb 10:05:53 10:10:05 76° 103° (ESE) 10:14:21 435.000/436.395/437.385
CUBEBUG 2 10 Feb 10:06:11 10:10:23 80° 283° (WNW) 10:14:37 437.445
CUTE 1.7 + AOD 2 10 Feb 10:10:52 10:14:24 25° 295° (WNW) 10:17:56 437.475
SEEDS 10 Feb 10:16:18 10:19:57 28° 294° (WNW) 10:23:35 437.485
AO-85 10 Feb 10:21:30 10:26:11 31° 115° (ESE) 10:30:59 145.980
SO-50 10 Feb 10:28:09 10:30:16 13° 7° (N) 10:32:23 436.795
UNISAT 6 10 Feb 10:28:14 10:32:30 59° 259° (W) 10:36:45 437.425
AAUSAT CUBESAT 2 10 Feb 10:29:24 10:33:07 31° 293° (WNW) 10:36:50 437.432
POLYITAN 1 10 Feb 10:35:07 10:39:08 45° 70° (ENE) 10:43:11 437.675
BUGSAT 1 10 Feb 10:35:39 10:39:02 24° 65° (ENE) 10:42:25 437.445
QB50P2 10 Feb 10:35:42 10:39:45 47° 70° (ENE) 10:43:50 145.880/145.840
PCSat 10 Feb 10:42:01 10:46:34 28° 110° (ESE) 10:51:09 145.827
Cosmos 2499 10 Feb 10:51:26 11:00:14 82° 279° (W) 11:09:12 435.465 / 435.565
ZACube-1 10 Feb 10:59:03 11:03:03 44° 289° (WNW) 11:07:06 437.345
DANDE 10 Feb 11:01:24 11:02:00 10° 38° (NE) 11:02:35 436.750
POPSAT HIP 1 10 Feb 11:05:07 11:09:22 88° 76° (ENE) 11:13:37 437.405
FUNcube-1 10 Feb 11:07:56 11:11:49 37° 291° (WNW) 11:15:45 145.935
NANOSAT C BR1 10 Feb 11:09:29 11:13:44 85° 258° (WSW) 11:17:59 145.865
DUCHIFAT 1 10 Feb 11:10:41 11:14:54 86° 253° (WSW) 11:19:09 145.980
HUMSAT D 10 Feb 11:13:05 11:17:16 86° 104° (ESE) 11:21:29 437.325/437.525
VELOX 1 10 Feb 11:13:15 11:16:23 19° 91° (E) 11:19:29 145.980
ANTELSAT 10 Feb 11:14:31 11:17:51 22° 267° (W) 11:21:10 437.575/2403.000
QB50P1 10 Feb 11:17:46 11:21:59 68° 258° (WSW) 11:26:13 145.935-145.965
TIGRISAT 10 Feb 11:21:28 11:24:35 19° 268° (W) 11:27:43 435.000
RS-15 10 Feb 11:26:00 11:36:12 44° 110° (ESE) 11:46:54 29.354- 29.394
Oscar 19 10 Feb 11:27:14 11:30:09 15° 55° (NE) 11:33:03 437.125/150
AISAT 10 Feb 11:29:33 11:33:22 27° 95° (E) 11:37:07 437.250
HO-68 10 Feb 11:30:31 11:35:26 20° 312° (NW) 11:40:19 435.675
JAS-2 10 Feb 11:31:13 11:36:09 20° 54° (NE) 11:40:45 435.910
AIST 1 10 Feb 11:39:15 11:43:36 56° 283° (WNW) 11:47:57
UKube-1 10 Feb 11:39:21 11:43:10 29° 96° (E) 11:46:57 .
DELFI C3 10 Feb 11:39:28 11:42:43 23° 295° (WNW) 11:45:57 145.870
Oscar 11 10 Feb 11:41:04 11:43:48 17° 300° (WNW) 11:46:32 145.826/435.025
UWE-3 10 Feb 11:43:55 11:46:03 14° 301° (WNW) 11:48:12 435.000/436.395/437.385
50 SAT 10 Feb 11:44:58 11:48:39 45° 99° (E) 11:52:18 437.505
CUBEBUG 2 10 Feb 11:45:31 11:46:19 10° 303° (WNW) 11:47:06 437.445
CUBEBUG 1 10 Feb 11:47:31 11:51:31 34° 96° (E) 11:55:29 437.445
SPROUT 10 Feb 11:48:48 11:51:02 14° 89° (E) 11:53:14 437.525
DX 1 10 Feb 11:52:08 11:56:20 46° 99° (E) 12:00:31 434.975-435.025
ESTCUBE 1 10 Feb 11:53:14 11:57:42 51° 100° (E) 12:02:07 437.505/2401.250
GONETS M04 10 Feb 11:54:01 12:00:32 23° 304° (NW) 12:07:08
AO-85 10 Feb 12:01:09 12:06:30 57° 314° (NW) 12:11:57 145.980
Gurwin Techsat 1B 10 Feb 12:03:21 12:05:50 13° 52° (NE) 12:08:19 435.225
CUSAT 1 10 Feb 12:03:23 12:08:50 29° 61° (ENE) 12:13:09 437.405
SO-50 10 Feb 12:08:28 12:12:30 25° 32° (NNE) 12:16:26 436.795
BUGSAT 1 10 Feb 12:10:21 12:14:16 37° 262° (W) 12:18:11 437.445
POLYITAN 1 10 Feb 12:12:02 12:15:11 20° 268° (W) 12:18:21 437.675
QB50P2 10 Feb 12:12:44 12:15:49 19° 268° (W) 12:18:56 145.880/145.840
PCSat 10 Feb 12:24:21 12:29:40 56° 310° (NW) 12:35:02 145.827
ITAMSAT 1 10 Feb 12:37:36 12:40:18 14° 53° (NE) 12:43:01 435.822/435.867
YUBILEINY 10 Feb 12:38:08 12:44:04 19° 52° (NE) 12:49:58 435.215
DANDE 10 Feb 12:40:45 12:47:40 39° 64° (ENE) 12:53:07 436.750
POPSAT HIP 1 10 Feb 12:45:05 12:45:47 10° 273° (W) 12:46:29 437.405
Cosmos 2499 10 Feb 12:48:12 12:54:53 23° 304° (NW) 13:01:36 435.465 / 435.565
VELOX 1 10 Feb 12:48:52 12:53:12 53° 289° (WNW) 12:57:29 145.980
HUMSAT D 10 Feb 12:50:36 12:52:19 12° 302° (WNW) 12:54:03 437.325/437.525
